Mobridge, SD

11:34 AM CST on February 08, 2016 (GMT -0600)
Mobridge Municipal

Weather History for KMBG - October, 2012

Change the Weather History Date:

Saturday, October 27, 2012

  Actual Average Record
Temperature  
Mean Temperature 31 °F 43 °F  
Max Temperature 44 °F 54 °F 81 °F (1944)
Min Temperature 18 °F 31 °F 17 °F (1952)
Degree Days  
Heating Degree Days 34 22  
Month to date heating degree days 521 460  
Since 1 July heating degree days 673 680  
Cooling Degree Days 0 0  
Month to date cooling degree days 0 0  
Year to date cooling degree days 866 641  
Moisture  
Dew Point 22 °F    
Average Humidity 75    
Maximum Humidity 92    
Minimum Humidity 57    
Precipitation  
Precipitation T in 0.04 in 0.50 in (1991)
Month to date precipitation 0.37 1.37  
Year to date precipitation 12.78 16.82  
Snow  
Snow 0.00 in - - ()
Month to date snowfall T  
Since 1 July snowfall T  
Snow Depth 0.00 in    
Sea Level Pressure  
Sea Level Pressure 30.23 in    
Wind  
Wind Speed 8 mph (East)    
Max Wind Speed 17 mph    
Max Gust Speed 21 mph    
Visibility 10 miles    
Events      
T = Trace of Precipitation, MM = Missing Value Source: NWS Daily Summary

Daily Weather History Graph

Daily Weather History Graph

Search for Another Location

Airport or City:

Trip Planner

Search our weather history database for the weather conditions in past years. The results will help you decide how hot, cold, wet, or windy it might be!

Date:

Astronomy

Oct. 27, 2012 Rise Set
Actual Time 8:14 AM CDT 6:35 PM CDT
Civil Twilight 7:44 AM CDT 7:05 PM CDT
Nautical Twilight 7:09 AM CDT 7:40 PM CDT
Astronomical Twilight 6:35 AM CDT 8:14 PM CDT
Moon 5:25 PM CDT (10/27) 6:07 AM CDT (10/27)
Length of Visible Light 11h 21m
Length of Day
10h 20m
Waxing Gibbous, 96% of the Moon is Illuminated
Oct 27
Waxing Gibbous
Oct 29
Full
Nov 6
Last Quarter
Nov 13
New
Nov 20
First Quarter

Hourly Weather History & Observations

Time (CDT) Temp. Windchill Dew Point Humidity Pressure Visibility Wind Dir Wind Speed Gust Speed Precip Events Conditions
12:52 AM 16.0 °F 7.4 °F 10.9 °F 81% 30.32 in 10.0 mi East 5.8 mph - N/A   Clear
1:52 AM 19.9 °F 12.1 °F 12.0 °F 71% 30.31 in 10.0 mi ESE 5.8 mph - N/A   Clear
2:52 AM 21.9 °F 12.5 °F 14.0 °F 72% 30.29 in 10.0 mi East 8.1 mph - N/A   Clear
3:52 AM 21.0 °F 11.4 °F 12.9 °F 71% 30.29 in 10.0 mi ENE 8.1 mph - N/A   Clear
4:52 AM 19.0 °F 9.0 °F 12.0 °F 74% 30.27 in 10.0 mi East 8.1 mph - N/A   Clear
5:52 AM 19.9 °F 12.1 °F 12.9 °F 74% 30.26 in 10.0 mi ESE 5.8 mph - N/A   Clear
6:52 AM 24.1 °F 13.1 °F 16.0 °F 71% 30.24 in 10.0 mi East 11.5 mph - N/A   Overcast
7:52 AM 25.0 °F 15.5 °F 19.0 °F 78% 30.25 in 10.0 mi ESE 9.2 mph - 0.00 in   Overcast
8:52 AM 27.0 °F 18.0 °F 19.9 °F 75% 30.26 in 10.0 mi East 9.2 mph - N/A   Overcast
9:52 AM 27.0 °F 17.3 °F 21.0 °F 78% 30.25 in 10.0 mi East 10.4 mph - N/A   Scattered Clouds
10:52 AM 28.9 °F 21.1 °F 23.0 °F 78% 30.24 in 10.0 mi East 8.1 mph - N/A   Clear
11:52 AM 36.0 °F 28.5 °F 26.1 °F 67% 30.22 in 10.0 mi SSE 10.4 mph - N/A   Scattered Clouds
12:52 PM 37.0 °F 31.0 °F 27.0 °F 67% 30.21 in 10.0 mi ESE 8.1 mph - N/A   Overcast
1:52 PM 39.0 °F 34.8 °F 27.0 °F 62% 30.18 in 10.0 mi Variable 5.8 mph - N/A   Clear
2:52 PM 41.0 °F - 28.0 °F 60% 30.16 in 10.0 mi Calm Calm - N/A   Clear
3:52 PM 43.0 °F 41.3 °F 28.0 °F 56% 30.15 in 10.0 mi South 3.5 mph - N/A   Clear
4:52 PM 43.0 °F - 28.0 °F 56% 30.15 in 10.0 mi Calm Calm - N/A   Partly Cloudy
5:52 PM 42.1 °F 40.2 °F 28.0 °F 58% 30.16 in 10.0 mi NW 3.5 mph - N/A   Clear
6:52 PM 30.9 °F 25.2 °F 24.1 °F 76% 30.18 in 10.0 mi North 5.8 mph - N/A   Clear
7:52 PM 34.0 °F 27.2 °F 25.0 °F 70% 30.18 in 10.0 mi NE 8.1 mph - N/A   Clear
8:52 PM 33.1 °F 23.4 °F 26.1 °F 75% 30.20 in 10.0 mi ENE 13.8 mph - N/A   Clear
9:52 PM 32.0 °F 22.5 °F 26.1 °F 79% 30.21 in 10.0 mi ENE 12.7 mph - N/A   Clear
10:52 PM 30.9 °F 21.2 °F 26.1 °F 82% 30.22 in 10.0 mi East 12.7 mph - N/A   Mostly Cloudy
11:52 PM 28.9 °F 21.1 °F 26.1 °F 89% 30.22 in 10.0 mi North 8.1 mph - N/A   Clear